Regional Weather Roundup
Issued by NWS

Home | Current Version | Previous Version | Graphics & Text | Print | Product List | Glossary Off
Versions: 1 2 3 4 5 6 7 8 9 10 11 12 13 14 15 16 17 18 19 20 21 22 23 24 25 26 27 28 29 30 31 32 33 34 35 36 37 38 39 40 41 42 43 44 45 46 47 48 49 50

000
ASUS43 KTOP 260659
RWRKS

WEATHER ROUNDUP FOR KANSAS
NATIONAL WEATHER SERVICE GOODLAND KS
200 AM CDT THU APR 26 2018

NOTE:  "FAIR" INDICATES FEW OR NO CLOUDS BELOW 12,000 FEET WITH NO
SIGNIFICANT WEATHER AND/OR OBSTRUCTIONS TO VISIBILITY.

KSZ001>006-013>018-027>032-041>047-260800-
NORTHWEST KANSAS

CITY           SKY/WX    TMP DP  RH WIND       PRES   REMARKS
GOODLAND       PTCLDY    44  31  60 SW14      29.99S
HAYS           CLOUDY    38  36  92 SW3       30.03F
HILL CITY      CLOUDY    40  35  83 W3        30.01F
RUSSELL        CLOUDY    36  36 100 S7        30.02F
$$

KSZ061>065-074>080-084>089-260800-
SOUTHWEST KANSAS

CITY           SKY/WX    TMP DP  RH WIND       PRES   REMARKS
DODGE CITY     CLEAR     36  32  85 S9        30.04F
GARDEN CITY    CLEAR     39  34  82 S9        30.03F
GREAT BEND     CLOUDY    35  34  96 S7        30.04F
LIBERAL        CLEAR     39  35  86 SW9       30.06F
$$

KSZ066>073-081>083-090>101-260800-
SOUTHEAST KANSAS

CITY           SKY/WX    TMP DP  RH WIND       PRES   REMARKS
CHANUTE        CLOUDY    50  47  89 N7        30.01F
COFFEYVILLE    CLOUDY    50  48  93 N7        30.01S
HUTCHINSON     FOG       34  34 100 CALM      30.04F VSB 1/4
MEDICINE LODGE   N/A     36  35  96 CALM      30.05F
NEWTON         CLEAR     39  38  96 SW5       30.04F FOG
PARSONS        CLOUDY    50  48  93 N7        30.02S
WICHITA INTL   PTCLDY    38  38 100 W3        30.03F FOG
WICHITA JABRA  CLEAR     42  42 100 CALM      30.03F
WINFIELD       PTCLDY    44  43  96 N3        30.05F
$$

KSZ007>012-019>026-033>040-048>060-102>105-260800-
NORTHEAST KANSAS

CITY           SKY/WX    TMP DP  RH WIND       PRES   REMARKS
CONCORDIA      PTCLDY    42  38  85 SW10      30.01F
EMPORIA        CLEAR     41  40  96 W5        30.02F FOG
LAWRENCE       FOG       38  38 100 NW5       30.01F VSB 1/4
MANHATTAN      CLOUDY    38  37  97 CALM      30.03S FOG
OLATHE IND     FOG       43  42  97 W3        30.00F VSB 1/4
OLATHE EXE     CLEAR     44  44 100 NW3       29.99F FOG
SALINA         CLOUDY    37  37 100 S3        30.03F
TOPEKA BILLARD CLEAR     41  41 100 SW3       30.01F FOG
TOPEKA FORBES  CLEAR     41  40  96 W5        30.01F
$$




USA.gov is the U.S. government's official web portal to all federal, state and local government web resources and services.